STARLINK-33809, 63508

Orbit data source: Space-Track

STARLINK-33809, 63508 is a payload satellite owned by SpaceX/Seattle (US) in LEO that was launched on Mon, 07 Apr 2025 UTC via an FALCON 9 launch vehicle from the Air Force Western Test Range (AFWTR). Payload-class satellites include a variety of spacecraft equipped with specific instruments for various scientific and technological missions. These include communications satellites like Starlink; space stations such as the ISS; scientific satellites like the Hubble; Earth observation satellites from companies like Planet Labs, Umbra, and HawkEye 360; GPS; miniature CubeSats for education and research; and military/defense satellites.

Loading next visibility...
Identifier
63508, 2025-071R
Orbit
LEO
Country
Flag of USUS
Related business
Manufacturer
SpaceX/Seattle
Mission
Operational Commercial Communications
Bus & Motor
STARLINK V2MO, Unknown motor
Mass
575 kg wet, ~530 kg dry
Launch date (UTC)
2025-04-07 (1 year ago)
Launch vehicle
FALCON 9
Launch site
Air Force Western Test Range (AFWTR)
Object type
Payload
Rocket body
Debris
Shape & HBR
Box + 2 Pan, 17.7 m
Radar Cross Section
36.964 m², Large (>1 m²)

Expand to show TLE details & history
Last TLE update: 8 hours ago

TLE from 8 hours ago
0 STARLINK-33809
1 63508U 25071R   26150.16668980 -.00007079  00000-0 -22716-3 0  9991
2 63508  53.1565 121.3120 0001230  94.9269 354.3089 15.30191189  5852
Epoch: 2026-05-30T04:00Z
TLE epoch observation values (Epoch: 2026-05-30T04:00:01.998Z)
Latitude
53.30193°
Longitude
-97.66113°
Altitude
480.974 km
Speed
7.632 km/s
True Right ascension
14h 00m 08s
True Declination
53° 07' 49"
Sunlit
Object was in daylight at epoch
Visualization orbit readout
Latitude
Unknown
Longitude
Unknown
Altitude
Unknown
Speed
Unknown
Apparent Right ascension
Unknown
Apparent Declination
Unknown
Sunlit
N/A
Visualization observer readout
Local Sidereal Time
21:49:39
Azimuth
Unknown
Elevation
Unknown
Doppler factor
Unknown
Orbital elements
Apogee altitude
476.341 km
Perigee altitude
474.655 km
Semi-major axis
6,853.635 km
Eccentricity
0.00012
Inclination
53.1565°
RAAN
121.312°
Arg. of periapsis
94.9269°
True anomaly
354.3075°
Mean anomaly
354.3089°
Eccentric anomaly
354.3082°
Mean motion
3.82527 °/min
Orbital period
94.11 mins
BSTAR
-0.00022716
Loading maneuver chart data...
Computing Atmospheric mass density...
Loading historical data...
Loading historical data...
Loading historical data...
Loading historical data...
Loading historical data...
Loading historical data...
Loading historical data...

Documentation

Showing up to 5 results
|